GFSNE_850_spd_000.txt.gz
Wind_Speed
28 29 31 32 33 33 33 33 34 32 32 28 24 21 22 20 20 19 18 22 24 24 18 16 15 17 17 23 27 34 21 56 50 52 47 47 51 51
30 32 34 34 34 34 34 34 35 37 38 33 31 29 27 29 30 28 26 24 21 25 27 22 22 23 22 20 22 25 20 26 54 53 51 47 53 54
33 35 36 35 35 34 34 34 36 36 40 35 33 29 28 26 26 29 30 33 26 24 25 28 27 26 25 25 24 22 26 30 35 48 54 55 51 56
34 33 34 33 33 34 35 37 38 39 41 39 36 36 32 29 28 28 26 26 30 29 25 26 27 26 25 26 27 26 25 26 26 28 56 59 56 52
32 32 34 34 36 37 37 37 36 36 37 37 37 36 38 38 36 34 33 30 29 29 29 28 25 29 30 28 29 29 26 24 27 32 31 60 56 58
31 30 31 33 34 36 36 37 37 39 41 42 43 37 32 33 33 32 37 37 36 31 29 28 31 29 28 26 25 24 25 28 26 28 29 44 58 59
37 40 42 43 43 43 43 45 46 48 51 48 45 40 40 35 33 34 33 30 32 27 30 31 31 31 29 28 27 26 27 26 27 28 29 29 35 65
43 46 48 48 46 46 46 42 38 38 40 39 38 36 37 30 29 31 34 32 32 23 24 29 32 31 29 29 27 27 27 26 27 29 31 32 30 38
38 35 33 30 29 30 31 30 30 31 31 32 35 35 34 31 30 29 31 34 35 37 36 25 23 27 28 28 27 28 30 31 31 31 33 35 34 34
29 29 31 32 32 32 32 33 32 32 31 31 32 33 32 34 35 32 30 31 32 37 40 36 24 21 23 24 28 28 28 27 31 32 34 35 40 35
31 33 32 31 32 31 34 35 38 36 34 33 31 30 29 28 28 27 29 28 32 32 31 35 37 29 20 21 19 18 24 27 29 30 31 34 38 34
29 29 27 28 29 27 28 31 34 36 33 32 32 32 29 27 27 32 32 33 32 27 25 27 30 34 30 25 23 19 20 24 26 28 29 32 34 35
29 30 30 27 25 26 25 27 31 30 31 31 32 30 30 28 26 26 30 33 33 32 26 21 22 25 30 23 17 18 23 27 30 25 26 31 35 36
28 28 27 25 24 24 22 23 23 26 29 32 32 32 30 28 25 27 25 26 28 29 28 29 29 30 29 33 37 30 28 29 32 29 28 30 28 30
24 24 21 24 20 18 17 18 18 20 24 27 30 31 31 32 27 24 22 24 26 27 26 27 31 31 33 37 39 40 35 29 29 27 23 26 29 27
20 19 16 18 13 13 13 13 14 14 15 21 25 24 25 25 24 27 29 24 24 27 28 29 31 32 33 32 28 30 36 26 27 24 22 26 28 28
16 21 18 18 15 13 12 10 7 8 10 11 11 14 16 16 17 18 20 20 22 26 25 19 26 29 30 33 29 24 26 27 27 25 21 22 21 25
11 17 22 18 17 17 16 14 12 9 8 8 8 3 3 6 9 12 16 20 19 24 26 23 24 27 27 22 17 15 21 23 25 23 20 17 17 15
11 15 17 20 18 18 16 16 15 12 8 6 4 5 5 10 12 13 14 16 18 23 18 19 16 19 18 17 15 19 21 20 22 20 16 17 17 15
11 12 15 17 17 18 18 16 14 13 13 8 4 5 5 4 3 1 5 8 8 12 13 16 14 15 17 15 13 13 15 16 18 18 17 15 11 11
11 12 13 15 16 16 18 18 16 13 11 11 8 4 3 3 1 1 3 5 6 7 9 11 12 11 10 9 9 9 7 10 11 12 16 16 16 17
11 11 12 12 15 16 18 18 19 18 13 11 8 8 4 2 2 1 2 4 5 6 8 9 10 8 7 6 7 10 14 13 13 13 13 15 17 17
10 10 11 12 13 14 16 18 20 21 19 15 11 9 7 5 4 3 2 1 1 3 5 7 8 7 5 4 7 11 13 12 11 12 13 14 13 7

GFSNE_850_spd_003.txt.gz
Wind_Speed
17 22 24 25 26 25 27 29 29 31 32 30 31 30 29 27 20 22 22 17 17 15 11 12 12 12 14 13 14 22 27 30 26 42 51 52 46 51
22 26 28 29 30 30 30 30 31 34 38 30 31 29 24 21 18 21 29 25 22 21 14 15 14 15 17 14 13 14 17 22 23 30 51 42 44 51
27 30 33 33 33 32 31 31 32 32 37 35 31 31 30 29 29 31 27 29 24 21 22 22 20 17 19 21 19 19 18 16 21 23 31 50 50 54
29 28 30 31 32 31 31 32 32 33 34 37 32 32 33 31 31 32 31 28 28 26 24 25 28 21 18 19 20 21 21 20 17 18 26 27 42 52
29 30 30 29 31 30 30 31 32 32 32 33 35 32 33 35 35 35 36 36 36 34 32 29 27 24 25 24 24 23 21 20 21 21 19 26 38 35
29 29 30 32 35 37 39 41 40 41 41 41 42 37 33 36 38 39 40 40 41 40 38 36 33 28 24 24 25 22 16 15 15 17 23 23 29 34
32 36 38 40 42 44 44 47 45 45 42 38 39 35 35 31 34 37 39 43 46 42 43 40 35 32 29 24 22 24 22 19 18 20 21 26 26 28
41 42 42 41 38 34 32 32 31 31 34 34 34 34 32 30 29 31 35 36 37 35 32 33 31 29 29 29 26 27 24 21 20 20 18 22 28 30
41 38 35 33 31 32 32 31 31 30 31 31 32 31 31 28 26 27 27 27 31 28 24 28 29 31 22 22 20 20 23 24 23 22 25 26 26 31
32 30 30 31 31 30 30 31 31 32 32 32 31 30 28 26 26 25 28 30 30 30 31 33 34 37 33 21 15 17 19 22 22 21 23 25 26 30
27 25 26 28 27 26 27 31 32 34 33 32 33 29 26 23 23 23 26 28 32 31 26 29 32 33 35 35 19 18 18 18 17 16 17 22 25 26
27 27 26 27 28 26 25 27 31 32 31 30 28 27 25 25 23 26 29 34 31 28 27 27 26 24 22 32 36 29 20 19 18 19 16 17 22 24
27 26 29 29 26 25 25 28 30 28 28 27 28 28 29 27 27 26 27 29 32 33 30 23 19 18 25 20 15 22 17 14 15 19 20 18 18 24
23 26 30 27 24 26 25 22 23 21 21 23 26 29 30 31 29 24 22 24 25 30 30 29 29 28 26 27 28 29 32 30 20 20 23 18 19 22
19 23 26 24 24 19 16 18 18 18 20 23 25 27 28 25 24 21 19 17 18 19 19 22 25 27 31 34 33 33 32 33 31 27 22 17 17 15
21 22 24 18 14 12 12 11 11 9 11 15 19 21 20 20 20 19 20 20 22 21 22 24 26 28 32 32 31 32 27 21 23 21 23 19 19 17
20 16 19 16 15 12 12 13 11 9 9 9 12 10 8 11 13 13 17 18 18 23 21 19 20 25 28 32 33 29 27 25 23 18 20 18 18 17
13 14 17 16 17 18 17 16 16 13 11 10 9 9 8 5 4 6 10 12 15 16 17 18 19 18 24 27 27 26 24 27 22 14 15 14 14 13
10 12 15 17 18 19 18 16 15 16 14 10 7 9 8 8 8 7 9 10 13 16 16 14 13 14 19 21 20 24 25 19 14 12 11 9 9 9
10 12 14 17 18 19 19 20 15 11 12 12 8 9 10 10 9 5 3 5 5 6 7 8 10 12 12 13 11 7 11 10 9 7 4 5 6 6
12 12 13 15 17 18 19 20 19 16 13 11 11 9 8 8 7 5 4 3 2 3 3 4 7 8 7 6 5 4 4 4 3 2 4 6 9 9
11 13 14 14 15 17 18 19 21 21 18 15 13 11 9 8 7 6 5 5 3 1 1 2 1 1 0 1 2 4 4 3 4 6 8 9 9 9
11 12 12 13 14 16 17 18 19 20 20 18 15 14 11 9 9 8 7 7 6 4 3 2 2 1 2 1 2 5 5 4 4 4 6 8 5 2

GFSNE_850_spd_006.txt.gz
Wind_Speed
19 17 18 19 16 18 22 23 22 26 31 30 33 30 25 24 22 23 24 23 20 19 15 8 5 7 11 14 18 37 25 23 31 23 22 44 38 40
14 16 18 20 22 24 26 27 27 29 34 32 31 33 27 22 23 23 23 23 21 19 19 16 16 13 11 11 10 10 13 20 23 27 23 22 44 44
21 23 26 26 27 26 26 26 26 25 30 35 31 28 30 26 26 27 29 31 30 25 20 21 21 20 18 12 12 14 15 17 18 16 20 23 31 48
25 27 27 27 29 28 27 27 27 26 27 32 31 28 27 26 26 26 27 32 35 35 32 27 25 24 19 20 15 15 18 19 19 19 15 21 27 30
28 28 28 27 28 27 28 29 31 31 32 34 36 35 33 32 31 30 32 33 35 37 36 35 34 31 26 24 23 21 21 22 21 21 22 23 24 29
26 27 29 30 32 35 37 38 39 40 40 41 42 41 37 38 38 39 42 42 42 39 39 38 37 35 34 33 27 25 24 21 19 18 21 25 25 26
31 34 35 36 36 37 36 37 35 35 31 29 31 30 30 29 33 37 39 40 41 38 39 39 38 37 35 34 32 28 24 22 20 20 21 25 27 27
35 38 39 36 33 30 27 25 25 27 29 30 32 32 31 30 30 31 33 35 38 34 33 36 33 35 32 29 29 31 30 25 23 21 22 22 26 29
37 35 33 31 28 28 27 27 26 26 29 31 34 34 34 30 27 27 25 26 30 30 28 29 24 25 23 26 23 26 29 28 26 24 24 25 27 28
31 30 28 26 25 24 25 27 28 29 29 29 30 31 31 32 28 27 26 27 28 28 27 32 29 31 28 29 31 21 22 24 23 24 25 27 27 27
27 23 23 23 23 24 25 28 29 27 25 25 27 29 28 26 28 26 28 28 30 30 25 27 30 29 28 28 32 32 26 20 18 21 21 22 24 25
24 25 21 23 24 27 26 28 30 30 29 29 28 24 25 26 25 26 27 29 29 25 26 25 23 19 20 21 22 32 27 18 18 20 19 19 19 21
27 25 23 22 27 26 24 26 28 28 24 24 24 24 23 24 25 26 28 30 31 30 29 26 22 18 20 21 9 10 27 23 20 18 12 11 17 21
23 21 23 28 31 25 22 18 18 20 21 21 21 23 22 23 24 27 27 27 28 32 29 20 25 23 22 23 23 17 16 19 21 20 18 17 17 20
17 19 23 26 23 18 15 15 15 15 14 14 17 19 20 20 20 21 20 19 20 23 25 25 26 28 27 28 27 24 21 19 22 26 28 26 22 22
21 21 20 20 16 14 11 12 12 10 10 11 13 15 14 12 13 14 17 17 18 18 17 18 20 21 25 25 26 28 27 27 21 18 18 21 21 20
18 17 17 18 18 16 13 12 13 12 10 9 8 9 10 5 5 7 10 14 17 18 19 21 21 22 24 26 29 28 27 27 25 24 25 22 21 18
13 13 16 18 19 21 21 16 13 15 13 10 8 9 7 6 4 2 7 11 15 16 17 18 17 18 20 22 26 28 27 25 22 22 21 22 19 15
11 12 15 18 19 20 22 21 17 15 15 13 10 11 10 9 3 2 3 5 7 10 14 15 11 11 13 16 14 15 22 21 19 20 21 19 14 14
13 14 15 16 18 20 21 22 19 15 14 13 12 11 11 10 9 9 4 1 3 3 2 1 1 3 5 5 6 7 9 13 15 15 14 13 13 12
14 14 15 17 18 19 19 19 20 19 16 15 12 11 9 9 7 6 6 4 3 3 3 1 1 2 4 4 5 5 5 9 11 11 10 9 9 9
13 14 15 16 17 18 19 19 18 19 20 18 16 13 11 10 9 8 6 5 3 3 3 3 3 3 2 3 5 7 6 5 6 7 10 9 7 5
13 14 14 15 16 17 17 18 18 18 19 20 19 16 13 10 9 8 7 7 6 5 5 4 3 1 2 4 6 7 7 7 6 6 7 6 5 4

GFSNE_850_spd_009.txt.gz
Wind_Speed
21 24 19 17 16 15 19 20 14 21 25 23 24 20 19 18 17 17 20 25 24 23 23 16 12 15 13 13 16 17 22 27 40 38 28 23 28 38
14 12 11 13 16 16 16 18 16 21 29 26 25 24 23 23 21 21 20 25 27 25 23 21 23 19 18 17 14 17 18 18 25 40 41 37 27 25
16 17 19 21 22 21 19 19 20 21 25 29 25 23 25 24 23 22 22 24 24 30 32 28 23 31 26 18 18 16 18 18 15 20 31 31 41 32
22 23 23 22 22 23 23 21 19 20 23 28 27 25 25 24 22 21 22 23 23 25 33 36 35 32 29 31 25 21 19 19 18 17 18 19 25 31
27 24 22 22 23 22 24 23 24 25 26 28 31 28 28 26 28 29 28 29 30 34 38 39 38 38 36 33 32 31 25 23 23 21 24 22 21 22
25 26 27 28 28 27 26 25 25 25 25 27 29 30 28 28 29 30 31 29 31 31 34 38 39 39 39 38 37 35 35 31 28 26 26 29 25 23
28 30 32 32 33 32 27 24 23 25 25 26 27 27 27 25 26 26 29 28 29 27 28 31 30 31 37 38 38 37 38 36 32 30 28 27 27 27
28 31 31 31 29 27 25 23 23 24 25 25 26 27 27 26 25 25 25 25 29 22 26 28 26 29 29 30 35 35 36 35 34 31 29 29 29 29
27 26 25 24 23 20 20 22 23 24 26 27 29 30 30 26 24 24 24 24 25 21 21 24 22 23 20 21 26 28 32 34 34 34 30 29 29 31
24 24 21 20 19 18 20 21 22 23 24 25 27 28 27 26 27 28 27 26 25 24 21 26 20 23 20 20 24 29 27 28 31 33 33 31 30 31
22 18 18 20 19 19 20 24 26 26 24 25 24 25 25 26 25 24 27 27 26 24 21 23 20 23 22 25 27 30 33 32 27 26 29 30 30 31
19 19 20 18 19 18 23 26 26 24 23 20 21 23 24 24 26 28 29 25 24 21 20 21 18 16 15 14 17 21 28 37 32 25 23 24 25 27
20 21 19 18 20 26 25 21 21 21 20 20 20 20 21 21 20 22 26 30 26 24 19 15 15 15 15 15 13 7 10 26 35 28 19 18 21 23
19 17 17 23 25 23 17 15 16 17 16 17 17 16 17 19 19 19 22 24 25 27 25 20 21 19 17 16 15 11 11 9 23 27 22 20 18 16
13 17 19 19 17 14 12 12 13 12 12 12 12 13 15 16 17 18 17 19 20 21 25 24 27 22 19 18 15 13 10 14 13 24 21 21 21 19
16 16 15 13 13 12 9 8 9 10 9 9 10 10 10 11 10 12 14 14 16 16 17 19 22 23 24 21 19 19 16 11 11 19 21 21 23 24
11 11 12 14 15 15 12 8 10 12 10 8 7 8 8 8 5 6 10 11 13 11 13 14 14 16 17 18 20 19 18 18 17 19 23 25 26 25
9 10 12 15 17 17 16 14 12 12 13 10 9 10 8 6 5 2 5 8 9 10 12 13 13 14 17 21 21 21 19 17 16 19 21 23 20 25
10 12 14 15 15 15 18 18 16 14 12 12 10 10 9 9 5 2 2 2 4 5 7 9 12 13 13 13 13 12 18 18 20 21 21 21 20 21
13 15 15 16 16 17 18 18 18 17 14 12 11 10 9 8 7 6 3 1 2 4 4 5 5 6 7 6 7 9 12 14 15 15 17 19 21 21
13 14 15 16 16 17 17 16 16 17 16 14 12 11 9 8 5 4 4 2 2 2 2 2 3 5 6 6 6 6 6 8 11 13 15 14 14 13
13 14 14 15 15 16 17 17 16 16 17 16 14 13 10 9 8 7 5 3 2 1 2 2 2 3 4 5 5 5 4 4 6 8 10 11 8 4
14 13 13 14 14 15 16 16 17 16 16 16 17 16 12 9 8 7 6 5 5 4 3 1 0 2 3 5 6 6 5 5 5 5 6 8 8 8

GFSNE_850_spd_012.txt.gz
Wind_Speed
10 11 14 13 13 12 12 10 11 16 20 19 17 17 17 17 16 16 16 16 21 22 24 27 22 20 22 23 25 25 25 24 26 28 34 38 30 35
8 10 12 12 12 12 12 13 14 17 25 21 21 20 19 20 20 21 20 21 24 27 26 27 29 28 24 22 22 22 24 25 23 24 24 29 41 42
10 12 14 15 15 15 16 17 18 20 26 27 24 22 23 23 22 22 21 22 21 23 25 29 31 31 33 33 27 27 23 23 25 24 23 24 23 30
14 16 17 17 16 16 17 18 20 21 24 28 27 26 26 24 24 25 23 22 22 23 25 29 33 36 37 36 37 36 29 25 24 26 24 25 25 24
18 18 18 16 17 17 18 20 22 23 24 26 30 27 27 26 26 27 26 26 27 27 30 33 36 38 38 40 42 39 39 38 33 28 27 25 26 27
18 17 18 18 19 20 20 22 23 24 24 25 28 29 26 26 27 28 29 28 29 28 30 32 32 30 30 36 42 44 43 40 43 39 32 28 29 29
20 20 20 21 27 30 25 23 23 25 25 26 28 29 28 26 28 28 30 28 28 27 28 30 29 28 29 32 39 44 44 44 43 43 42 37 33 33
24 23 23 24 23 24 27 26 24 23 25 24 25 27 27 25 23 24 24 24 27 23 27 32 29 29 28 28 29 31 31 36 43 43 43 41 37 35
22 23 23 22 23 21 23 24 24 24 24 24 27 28 28 26 24 25 25 26 28 24 23 27 23 23 25 24 28 31 34 37 39 40 41 41 39 37
22 22 23 23 21 20 21 20 21 22 23 24 26 27 27 26 25 26 27 28 28 28 26 30 25 27 25 25 27 28 28 29 32 35 38 39 38 36
21 20 20 21 21 22 21 22 22 24 24 28 29 28 29 30 28 25 25 25 29 29 26 27 25 25 24 25 26 26 30 31 33 31 31 34 36 37
20 19 20 20 21 20 19 22 25 25 23 22 22 23 21 25 25 29 30 29 27 22 21 24 22 20 18 17 16 16 20 26 31 36 33 30 30 32
20 20 18 18 20 21 25 26 22 21 21 20 19 19 20 20 22 24 25 28 30 29 21 17 13 16 17 17 14 14 10 13 19 29 36 32 29 26
20 18 18 20 24 22 20 16 17 16 16 15 15 16 16 16 17 19 21 21 24 27 23 19 19 19 17 16 15 13 12 14 14 17 26 34 28 23
17 18 20 19 16 12 13 12 10 10 12 12 12 13 13 14 16 19 20 19 20 22 22 22 22 22 18 16 14 12 11 10 14 13 19 26 27 21
18 12 16 13 10 12 10 9 8 9 10 10 11 10 10 11 12 11 13 15 16 16 19 21 22 23 21 19 17 16 15 11 10 12 15 20 25 25
12 10 10 10 10 11 11 9 8 9 9 9 9 10 10 9 9 7 7 8 11 10 12 12 13 16 18 18 19 16 15 14 14 14 14 14 16 19
7 8 10 11 11 12 13 12 11 11 10 10 9 9 9 10 8 7 4 6 8 8 8 7 8 10 13 17 19 18 17 15 13 15 17 16 15 16
8 9 11 12 13 12 12 12 13 13 12 9 10 10 9 9 9 7 5 4 3 4 5 5 7 9 10 13 13 13 15 16 16 17 17 17 14 14
9 10 11 12 13 13 14 13 13 13 13 12 11 10 9 9 9 8 6 3 3 4 4 4 3 6 8 5 4 11 11 13 14 14 15 16 19 21
10 10 11 12 12 12 13 13 14 14 14 15 13 11 9 10 9 9 7 8 5 4 2 2 5 5 8 8 6 7 9 7 10 10 11 10 9 10
10 10 10 11 11 12 12 13 13 14 14 14 14 13 11 10 9 9 9 8 6 5 4 4 4 3 3 3 5 8 4 5 4 7 9 11 8 4
10 10 10 10 11 11 12 12 13 13 13 13 13 14 14 12 10 9 8 8 7 5 5 5 5 4 3 2 3 2 4 2 1 2 6 8 10 10

GFSNE_850_spd_015.txt.gz
Wind_Speed
13 12 11 12 12 13 10 11 10 11 17 13 13 13 17 17 15 18 17 16 18 18 19 24 26 25 26 29 31 30 29 27 27 26 28 28 27 31
13 12 13 14 14 15 13 11 13 15 19 16 18 18 18 18 18 17 19 21 22 23 23 24 26 28 28 26 29 31 31 30 29 28 28 28 28 27
13 15 15 16 17 18 18 19 19 18 23 24 22 21 21 23 24 23 21 22 22 25 25 26 26 31 30 30 29 28 31 32 30 28 28 29 28 28
17 17 18 19 20 19 19 20 20 21 24 27 25 25 25 24 25 25 24 23 24 23 26 27 27 27 31 35 35 34 33 32 33 30 30 31 30 29
20 22 22 22 21 20 20 21 21 22 23 26 28 27 27 25 25 25 26 26 26 25 27 27 24 26 31 36 38 41 41 38 39 37 33 30 32 31
22 22 23 23 23 22 21 21 21 23 24 27 30 29 27 26 26 26 27 26 27 25 26 28 29 30 28 30 36 40 42 44 44 43 45 40 35 32
23 24 24 24 26 30 30 27 23 23 23 26 29 29 28 26 25 24 26 25 26 23 23 25 24 27 30 31 28 32 38 40 41 44 47 46 45 42
24 24 24 25 25 24 24 29 26 23 24 25 28 28 26 26 25 24 23 22 24 24 25 32 28 30 31 28 24 27 27 30 32 34 42 46 48 46
23 24 25 24 24 23 23 20 23 24 25 24 27 27 28 27 25 25 27 27 26 22 22 28 24 25 24 26 32 34 32 33 33 35 36 39 45 47
23 24 24 25 23 25 23 23 22 22 22 24 27 27 25 24 25 26 27 28 27 25 23 29 27 30 28 28 31 33 37 36 36 37 38 40 41 42
22 21 22 24 23 23 23 23 23 22 21 24 28 31 33 34 34 32 33 27 26 23 24 28 31 30 30 30 30 29 30 32 34 38 31 32 33 35
22 22 21 22 24 23 22 23 23 22 23 24 23 23 24 24 26 30 31 31 32 31 23 24 24 23 24 23 23 21 21 20 24 31 34 34 31 29
24 23 21 22 14 16 22 27 27 25 24 21 20 19 19 18 21 23 26 28 29 33 28 23 20 17 23 22 20 18 14 13 15 19 22 30 34 33
24 22 23 25 27 26 21 17 19 19 15 14 17 17 17 15 14 16 20 23 25 26 22 21 25 20 18 16 16 15 17 19 17 17 18 20 27 33
20 23 19 17 22 13 13 13 10 8 12 13 13 13 13 14 14 14 17 21 23 23 21 20 23 22 17 16 16 17 14 13 13 13 13 14 18 24
21 13 15 15 11 11 12 10 8 9 10 10 12 11 12 11 13 12 12 12 14 16 16 18 21 24 25 24 20 21 18 16 13 13 11 12 16 20
13 13 13 13 12 11 11 10 9 10 9 9 9 10 10 9 11 8 9 8 9 9 10 13 12 14 18 19 18 18 18 18 15 15 14 11 15 14
10 12 12 13 14 14 15 14 13 13 11 10 10 10 10 8 10 7 7 5 6 7 8 8 11 10 11 14 17 19 18 18 17 14 15 16 13 14
10 11 12 14 16 17 17 15 15 15 14 13 11 11 10 8 9 8 8 6 5 6 5 3 4 8 11 14 14 16 18 15 16 17 15 15 14 11
11 12 14 15 14 14 14 16 16 15 14 13 13 11 10 9 9 9 8 8 6 6 5 4 3 6 3 3 3 4 8 12 11 12 13 11 14 14
12 12 13 13 13 13 13 13 15 16 14 12 13 13 12 9 9 9 8 7 6 6 5 6 9 5 6 8 7 7 11 10 7 10 7 7 9 9
10 11 11 12 13 13 13 12 14 14 16 14 13 14 13 11 10 9 9 9 7 7 6 8 8 6 5 4 7 9 8 11 5 5 7 10 6 3
10 10 10 11 11 12 12 13 12 12 13 14 13 14 13 13 11 10 9 9 8 8 8 7 6 7 7 5 4 5 8 5 3 3 10 7 9 12

GFSNE_850_spd_021.txt.gz
Wind_Speed
21 21 20 18 17 17 16 14 18 18 24 24 22 19 18 20 21 14 17 15 19 28 12 15 23 23 25 26 24 19 17 24 28 25 23 22 22 21
20 20 20 21 23 20 17 16 18 23 27 26 27 21 17 18 21 22 17 10 5 3 11 15 17 16 18 23 25 21 22 25 29 29 25 24 24 22
16 15 17 20 23 24 23 21 18 20 25 27 22 20 18 15 13 16 18 17 12 8 18 17 20 18 19 21 24 23 22 28 25 25 25 25 26 25
17 21 27 32 28 22 21 23 24 25 27 29 26 24 23 20 18 16 15 14 12 13 17 13 16 15 16 18 20 20 21 24 24 24 25 26 26 26
31 34 33 30 30 29 26 26 27 25 24 26 28 30 32 30 29 29 26 25 27 25 20 22 24 22 21 22 25 25 22 23 27 29 29 29 28 27
33 33 34 33 28 26 26 26 27 30 30 31 33 34 34 33 34 23 24 18 22 23 22 23 24 25 25 22 21 25 28 28 27 29 30 34 37 36
36 36 36 29 22 20 22 22 22 22 24 27 27 27 25 23 23 22 21 20 17 14 16 18 19 20 20 22 24 24 27 29 29 30 30 31 34 37
32 34 31 26 22 22 22 21 20 21 23 24 24 26 27 24 24 25 32 31 29 25 24 24 22 24 24 25 23 23 27 31 33 34 36 34 31 30
30 31 30 25 23 24 26 26 26 25 24 23 21 23 25 24 23 21 20 21 24 26 28 31 31 31 29 28 27 28 31 33 31 30 30 30 30 30
27 28 29 26 23 23 22 23 24 22 21 20 21 24 23 24 23 23 23 24 25 23 22 29 28 30 28 30 30 28 28 28 29 32 35 35 38 41
27 29 26 25 21 21 22 21 22 22 21 20 19 21 23 22 21 22 27 27 31 33 31 31 32 28 22 25 26 28 31 32 31 29 30 33 36 35
32 33 25 20 20 18 23 23 25 25 25 25 27 29 28 29 29 28 29 30 30 27 27 23 25 24 26 24 18 15 17 21 21 23 26 28 28 30
31 27 22 21 21 19 20 21 19 15 17 19 17 13 9 9 11 13 16 19 22 25 22 22 20 16 19 23 23 18 18 18 16 14 14 16 17 22
25 21 18 19 16 17 14 13 14 13 13 12 11 10 11 11 11 12 11 15 17 19 18 20 20 20 19 20 21 20 13 13 13 14 17 19 19 19
19 16 13 18 16 11 10 11 10 8 8 8 9 10 9 9 8 9 9 11 13 12 12 13 20 21 20 19 20 19 13 17 18 16 15 13 15 18
15 14 16 15 11 14 13 9 11 11 9 9 7 7 8 7 6 7 8 3 7 5 6 8 11 14 18 19 19 19 18 20 20 20 19 19 19 19
15 15 16 16 15 16 15 13 13 13 10 9 9 9 8 7 5 10 3 6 3 5 3 3 6 9 11 13 15 17 20 20 16 15 16 18 18 17
16 14 16 17 17 16 15 15 16 16 11 10 9 10 9 9 8 8 8 7 5 4 6 5 4 7 10 12 13 14 14 15 15 17 17 20 22 16
15 14 15 16 17 15 14 13 15 15 11 10 10 10 9 8 8 8 7 7 8 6 3 2 2 2 11 10 4 4 10 13 15 16 17 21 21 16
15 13 14 16 16 15 14 12 12 12 12 10 10 11 11 10 9 8 8 7 7 7 6 6 5 3 3 4 4 7 6 5 7 11 12 11 13 12
17 13 12 15 15 14 13 11 12 12 11 7 9 9 10 12 11 9 7 6 6 5 5 7 7 6 3 3 1 2 3 6 9 6 7 8 5 5
16 15 13 14 15 14 14 13 13 14 12 7 7 8 7 10 10 10 9 8 8 8 6 5 5 4 4 5 4 1 3 8 8 3 3 7 6 5
15 14 15 14 13 13 13 13 14 14 13 10 7 7 6 6 7 7 7 7 8 9 3 2 1 3 4 2 3 2 5 7 5 4 2 7 6 5

GFSNE_850_spd_024.txt.gz
Wind_Speed
18 17 17 17 18 19 22 25 22 21 19 17 19 17 13 16 15 17 20 20 15 30 26 30 18 15 19 23 23 24 23 22 21 21 23 20 20 18
20 20 17 16 18 21 23 22 24 23 20 21 23 17 14 13 12 15 15 17 21 15 21 20 14 11 13 15 17 21 21 21 19 25 27 22 20 19
20 18 21 25 30 32 30 26 21 21 25 27 25 26 24 22 19 13 14 16 17 17 10 12 16 8 11 15 18 20 21 23 24 26 28 25 25 22
23 26 31 34 34 31 28 27 26 26 25 28 27 26 26 23 24 25 22 18 18 18 19 15 14 14 14 14 14 13 14 19 24 26 24 18 18 21
31 33 35 34 34 32 29 28 27 26 22 26 29 28 29 27 29 30 26 23 22 19 18 19 18 20 17 12 16 16 17 16 19 22 23 21 22 22
33 35 31 29 30 26 24 23 23 26 26 26 25 23 26 25 26 25 24 21 21 19 15 13 18 20 18 20 23 21 17 17 18 18 19 21 24 27
31 27 27 27 26 21 21 21 18 22 23 23 25 25 24 25 23 22 22 22 22 18 16 14 14 15 16 17 17 23 23 21 22 24 24 25 25 25
26 27 27 27 26 23 20 21 24 24 23 22 22 19 21 24 21 20 22 20 21 24 24 24 20 18 14 14 16 17 19 22 26 28 28 28 28 29
27 27 29 26 28 21 20 20 20 20 22 22 24 26 25 23 22 22 21 18 19 17 20 29 29 29 27 25 23 22 22 24 27 27 28 29 29 29
27 27 27 29 22 20 19 22 19 18 17 19 22 22 21 20 19 19 19 20 21 20 19 25 23 27 29 30 30 30 30 30 29 29 31 34 34 34
28 28 24 22 20 17 20 20 19 19 20 19 18 18 19 17 18 19 21 20 25 27 26 25 27 28 28 26 23 27 29 30 33 34 32 31 32 33
25 23 20 17 17 17 18 19 22 23 18 16 19 23 25 28 29 28 28 30 30 29 26 26 22 18 19 25 29 22 20 21 24 26 26 28 29 29
22 19 17 16 18 18 18 17 16 15 16 16 13 9 7 9 11 13 14 17 21 22 19 16 17 14 15 15 9 16 13 12 10 13 14 15 18 22
19 16 16 19 19 12 11 11 11 10 8 7 6 7 7 7 7 9 10 13 10 17 14 17 18 16 13 16 17 12 12 13 11 11 13 14 16 20
17 14 18 16 11 12 12 9 9 9 8 7 8 7 6 5 5 7 9 11 10 11 11 13 15 14 17 17 16 13 12 9 13 14 15 14 15 13
19 16 15 14 12 12 10 11 10 9 8 7 7 7 7 6 3 4 2 1 5 5 7 8 10 11 14 17 16 17 14 11 12 11 14 17 17 17
18 14 14 15 15 15 12 12 12 13 10 8 8 8 7 6 4 7 3 3 2 2 2 5 5 6 9 10 12 12 11 14 16 18 18 19 19 18
15 13 14 15 16 15 14 12 12 14 11 10 9 7 8 8 7 6 6 5 4 1 1 4 6 6 9 11 12 13 14 12 12 13 15 19 21 17
15 12 13 15 16 14 14 12 13 13 11 9 10 9 6 6 7 6 5 5 6 5 5 3 2 1 4 8 8 5 5 7 10 11 13 17 20 19
16 15 14 14 15 14 14 14 13 12 9 7 8 8 8 7 6 7 7 5 3 2 3 3 3 3 4 6 8 8 9 6 5 7 12 14 14 12
15 15 14 15 14 14 14 13 13 14 10 6 6 7 7 8 6 6 5 5 5 5 4 4 4 4 4 5 6 6 4 4 7 7 6 7 6 5
15 14 14 14 14 13 13 12 12 13 12 7 6 6 5 5 6 6 6 6 7 10 6 5 5 4 2 3 6 6 4 5 8 6 5 5 5 4
16 14 13 13 13 13 12 12 12 12 12 10 8 8 7 5 4 5 6 7 7 7 3 0 2 3 5 6 6 4 4 4 2 3 3 4 5 5

GFSNE_850_spd_027.txt.gz
Wind_Speed
16 17 20 20 19 18 18 21 19 21 24 25 19 17 14 12 15 17 15 16 19 20 15 19 25 33 27 33 23 19 21 22 23 20 20 20 18 16
21 20 20 20 22 25 30 31 28 25 25 24 29 22 17 20 19 18 18 19 22 24 21 11 20 24 21 17 19 16 13 16 20 21 25 21 20 17
22 20 23 27 30 32 32 31 29 26 28 32 28 27 24 22 24 23 22 21 19 21 24 21 12 17 22 19 13 11 19 16 17 18 23 24 17 21
24 26 29 31 35 32 29 29 28 27 27 30 29 23 22 23 24 25 23 22 21 21 20 26 23 10 14 13 11 12 10 14 20 22 26 23 22 22
26 31 34 33 30 28 27 27 25 25 23 23 27 27 25 22 23 23 24 25 23 21 18 17 20 18 18 15 12 11 15 14 13 18 17 17 20 17
32 32 29 26 26 27 27 26 24 22 21 22 22 21 20 20 24 23 21 21 21 19 17 15 13 15 17 17 14 14 10 13 16 14 15 17 18 19
29 27 26 26 24 25 25 25 24 24 27 24 22 19 18 19 22 20 20 19 18 16 19 16 13 14 16 13 14 19 18 18 17 19 21 18 17 17
29 28 27 26 27 25 28 23 22 22 24 26 28 25 22 20 18 18 18 19 21 19 14 18 19 18 15 14 18 17 15 20 23 22 24 23 22 21
28 27 27 27 27 24 21 18 17 20 20 22 25 25 25 22 20 21 21 23 23 19 17 20 20 23 22 22 20 18 18 18 18 20 21 22 24 25
26 24 23 22 21 20 20 23 23 20 16 17 18 19 20 21 20 20 19 20 20 20 18 21 20 19 21 23 24 26 26 24 22 21 22 24 24 25
20 20 19 18 16 18 21 22 21 21 21 22 22 22 22 16 16 14 17 16 19 21 20 23 25 25 23 25 25 25 26 27 27 27 28 27 27 27
19 18 15 15 19 20 22 21 21 19 16 14 15 14 17 22 24 26 26 27 28 29 23 14 16 18 14 16 19 23 24 20 21 26 29 30 30 31
20 19 17 19 21 17 16 15 16 19 18 14 13 12 9 9 11 15 18 20 20 21 19 16 14 9 10 13 9 5 16 18 15 14 18 20 21 23
19 19 19 20 17 16 16 14 14 14 12 10 11 10 8 7 7 9 11 13 15 15 13 14 15 10 10 11 11 5 9 11 15 14 14 14 16 17
20 20 18 18 16 14 11 11 12 12 11 10 10 10 10 9 8 7 9 12 13 11 11 12 14 14 14 14 14 9 6 7 11 13 13 14 14 15
20 18 17 16 14 13 10 11 13 11 11 10 10 10 8 6 3 3 1 1 4 7 7 7 9 11 12 13 10 10 10 10 8 14 16 17 17 17
19 16 15 14 15 13 12 12 13 14 11 11 11 9 8 6 5 5 3 2 2 5 5 6 5 6 7 9 10 10 9 11 13 16 19 18 18 19
18 16 15 16 16 16 16 14 13 13 11 11 10 8 7 8 7 6 6 5 4 2 2 4 4 6 6 8 9 9 11 13 12 14 15 18 21 19
17 16 15 15 16 15 15 15 16 14 10 8 9 9 7 6 7 7 4 3 3 3 5 4 2 3 5 5 5 5 5 4 6 8 11 13 15 14
16 16 15 15 15 15 15 15 15 14 10 7 8 8 8 7 7 7 6 5 3 4 3 3 3 3 2 4 5 6 7 6 3 4 6 9 12 12
15 14 14 14 14 14 13 13 14 14 14 9 8 8 8 8 7 7 6 7 7 7 6 6 6 6 5 6 6 4 4 3 3 5 6 6 5 7
13 13 12 13 13 13 13 13 13 13 12 11 10 9 9 8 8 8 9 10 10 10 9 5 5 5 5 5 5 4 3 3 5 6 5 4 4 3
12 12 12 12 12 12 12 12 13 13 13 12 11 11 10 8 8 9 9 10 12 9 6 2 2 3 5 6 6 4 4 3 2 4 4 4 4 5

GFSNE_850_spd_030.txt.gz
Wind_Speed
17 20 20 20 21 21 23 25 25 26 36 35 36 29 25 22 22 21 19 19 21 22 21 19 17 23 27 23 24 25 20 20 19 19 20 19 18 16
18 18 19 20 22 27 30 31 31 29 35 36 37 33 29 25 22 26 25 23 23 24 25 24 19 19 22 23 30 26 24 19 18 19 23 24 21 16
19 21 21 25 30 33 34 33 30 27 34 39 37 34 31 25 25 26 27 26 25 22 21 23 22 19 17 20 18 15 24 26 25 21 22 25 25 20
22 25 29 33 36 34 30 29 28 25 27 32 34 33 29 21 22 25 28 25 23 22 21 20 18 18 19 14 23 18 14 22 26 16 19 22 25 24
28 31 35 34 32 30 29 30 29 28 24 26 31 30 28 24 26 24 23 24 23 21 21 20 20 15 15 18 11 18 17 15 14 24 18 23 26 24
32 33 32 31 30 30 29 30 29 27 28 27 28 27 23 22 21 20 21 21 22 19 18 18 16 16 14 17 13 10 22 20 18 12 14 19 17 20
32 32 30 30 27 26 27 28 29 30 26 25 27 26 26 25 19 20 20 20 20 18 15 14 17 10 12 13 14 13 13 12 20 20 19 18 18 18
30 31 30 28 26 24 26 25 22 24 24 24 26 27 26 24 22 22 21 19 20 18 17 14 16 20 16 12 14 15 15 18 16 17 21 21 18 18
29 26 23 21 20 20 18 18 20 21 22 22 23 22 21 21 22 24 22 21 23 21 20 23 18 20 22 22 16 15 18 19 19 20 19 21 21 22
23 21 21 19 16 17 25 24 22 22 21 20 22 23 24 21 20 22 21 21 22 22 17 22 20 17 16 23 24 23 20 19 20 20 24 23 20 19
20 19 18 18 17 21 23 23 20 18 16 16 18 18 19 20 22 19 16 19 20 17 12 17 19 19 19 20 21 25 26 25 24 22 21 21 23 24
21 20 18 18 19 20 20 22 20 21 22 21 16 14 15 18 18 22 24 24 20 21 16 15 13 10 10 14 16 21 25 28 28 27 28 28 27 27
22 22 21 18 19 19 18 17 19 21 19 17 14 12 12 11 10 11 14 21 26 27 22 15 14 8 8 6 5 5 13 25 26 23 23 25 27 30
22 21 20 19 19 17 15 15 17 17 15 13 13 13 12 12 11 10 10 12 12 12 12 12 13 9 8 7 4 0 5 10 17 18 16 15 20 23
21 20 18 18 17 15 13 13 15 16 13 13 14 14 14 12 11 10 10 11 13 13 12 12 12 12 12 11 10 5 6 9 11 16 17 17 17 17
20 20 18 16 16 15 15 13 14 15 13 14 14 13 11 8 8 9 6 3 3 4 5 5 7 9 10 9 9 8 8 5 5 11 15 15 16 15
19 18 17 16 16 16 15 15 15 13 11 12 13 12 11 11 10 10 8 6 3 1 4 4 5 6 7 9 8 6 8 10 9 13 17 18 18 17
17 17 17 17 17 17 18 17 17 15 11 11 12 13 12 12 11 9 7 8 9 8 5 2 4 6 6 6 8 7 6 9 11 12 15 17 19 18
15 14 16 16 16 16 16 17 17 18 14 10 11 12 11 10 10 10 8 6 5 7 8 7 4 4 4 4 3 4 5 5 2 7 9 11 12 11
14 14 13 14 15 15 15 16 16 15 15 11 10 11 10 10 10 9 9 9 8 6 5 4 4 3 1 1 4 4 5 5 2 3 4 5 7 9
14 13 13 12 13 13 14 14 16 16 15 14 12 12 11 10 9 9 9 10 10 9 7 6 5 4 3 4 4 4 4 4 3 3 4 5 5 5
13 13 12 12 12 12 12 13 13 14 14 14 12 12 12 11 10 10 10 11 11 11 9 6 3 3 3 3 2 3 5 5 4 3 3 4 3 2
13 13 12 11 12 12 12 12 13 13 14 14 14 12 12 11 10 10 10 9 11 10 7 3 2 1 1 3 4 3 4 3 2 1 2 2 2 2

GFSNE_850_spd_033.txt.gz
Wind_Speed
19 19 19 19 20 20 22 21 22 33 36 34 33 25 24 23 24 25 24 25 27 25 25 25 22 17 17 23 21 20 28 28 25 26 25 23 21 21
18 19 20 22 23 24 26 27 24 28 36 31 31 28 27 27 26 25 24 27 29 28 26 26 24 22 18 19 21 24 30 28 24 25 27 26 24 20
18 22 21 24 25 23 23 23 22 23 29 34 29 27 28 27 26 24 22 23 22 24 24 23 22 21 18 17 17 22 24 30 33 23 24 28 27 24
20 23 27 26 27 23 23 23 23 23 27 33 32 28 25 25 24 23 21 22 22 21 23 21 20 20 18 17 15 23 23 29 30 33 24 24 28 25
22 28 30 26 25 24 24 25 24 22 22 26 31 27 26 23 20 20 22 23 23 22 23 21 20 20 18 17 15 16 22 21 32 29 26 27 25 27
28 30 30 26 23 24 24 22 22 22 22 24 27 26 22 20 19 19 19 18 19 19 19 20 20 18 18 18 16 13 19 21 25 35 21 29 34 30
27 28 29 29 26 22 19 20 21 23 22 22 23 23 21 19 18 17 18 16 16 17 17 14 12 11 11 13 16 16 16 17 23 28 28 22 17 34
27 28 26 22 18 20 17 15 16 19 21 22 23 23 23 22 19 17 17 17 17 13 12 12 9 10 15 12 13 15 16 11 16 22 24 35 14 13
25 25 21 17 17 16 16 21 22 21 23 25 24 24 23 19 18 18 17 17 20 17 15 18 15 15 13 19 18 15 17 13 13 14 23 21 16 18
23 21 18 17 16 17 22 21 18 18 18 19 20 23 21 21 20 20 20 21 17 17 16 18 15 16 13 16 23 22 17 18 19 19 17 15 16 21
21 17 16 17 17 18 20 20 20 18 17 20 20 20 19 20 20 19 18 17 15 15 12 14 12 12 12 15 18 23 24 22 20 19 20 22 18 17
19 17 18 18 16 18 18 18 18 19 21 19 16 15 13 13 13 15 16 18 19 9 11 12 11 9 6 8 16 22 25 25 26 25 23 21 23 22
19 20 19 19 17 17 15 13 17 21 20 16 14 13 12 12 12 12 11 14 16 21 15 12 10 8 8 5 3 8 17 24 28 28 28 28 27 25
19 21 20 18 18 18 17 16 17 18 16 14 13 13 13 13 12 12 12 13 14 14 12 11 12 10 7 5 5 3 8 10 22 27 27 26 27 28
19 20 20 18 17 17 16 16 15 16 14 13 14 13 13 12 10 11 9 10 10 10 11 12 13 11 10 7 4 4 5 7 9 16 21 20 19 23
18 18 18 17 16 15 15 14 14 14 13 12 13 13 12 12 12 13 11 5 3 4 7 9 11 12 11 9 8 6 7 5 10 13 16 18 18 16
18 17 16 16 16 15 15 15 16 14 11 11 12 13 13 12 12 12 11 11 8 3 1 4 6 7 8 8 6 5 8 9 8 10 13 15 16 16
17 16 15 15 16 16 16 16 16 17 15 12 12 13 13 13 12 11 10 9 9 11 9 2 2 6 7 6 7 5 5 7 8 11 14 14 12 16
16 15 15 14 14 15 15 15 16 16 16 14 13 13 12 12 11 11 10 9 9 8 7 8 6 5 6 5 3 6 7 6 4 10 11 12 12 12
15 14 14 13 13 13 14 14 14 15 15 15 14 13 12 12 11 11 10 10 9 8 7 5 3 2 2 1 2 4 4 3 3 5 5 7 8 11
16 14 14 13 13 13 13 13 14 14 15 15 15 14 13 12 10 9 9 9 10 9 7 5 3 2 2 2 2 3 5 5 5 5 5 4 3 4
16 15 13 13 12 12 12 12 13 13 14 14 13 13 13 12 11 10 10 9 9 9 6 3 1 2 2 3 2 2 4 5 4 3 3 4 4 3
16 15 14 13 12 12 12 12 11 12 12 13 13 13 12 11 11 10 10 9 10 8 5 2 2 3 2 3 3 3 4 5 4 2 2 2 4 4

GFSNE_850_spd_036.txt.gz
Wind_Speed
21 16 14 16 15 17 19 21 24 32 35 33 33 29 28 27 27 28 28 29 27 30 29 30 29 27 24 22 21 19 26 26 31 19 36 32 28 25
15 15 16 17 17 20 23 24 26 32 39 35 33 30 29 29 28 28 28 30 29 28 26 29 29 28 25 23 22 22 18 29 23 14 36 33 30 26
14 15 17 19 22 24 25 27 29 30 35 40 33 31 29 29 28 26 25 25 26 26 27 25 25 23 23 22 21 21 21 17 27 19 25 24 30 26
15 16 19 22 24 25 26 27 29 30 31 35 32 29 27 27 27 26 24 23 24 23 24 25 27 22 23 23 20 20 21 18 18 25 23 30 28 27
15 18 21 22 24 23 25 27 26 26 25 27 32 27 26 26 25 24 23 21 22 23 29 26 21 21 21 22 20 19 19 18 20 17 23 30 31 30
17 18 19 19 21 22 23 22 22 23 24 26 28 27 24 22 22 23 22 20 19 18 19 21 20 20 20 19 19 19 19 17 17 22 21 25 25 37
16 17 18 20 26 20 18 18 19 20 21 22 24 24 24 23 22 22 22 21 20 17 17 17 16 15 14 11 10 19 19 18 16 20 22 27 35 26
16 17 17 18 16 22 19 20 17 22 24 24 26 26 26 25 23 22 20 19 20 15 16 14 13 10 11 12 17 17 15 18 15 16 21 23 17 28
16 17 17 16 20 19 19 20 22 22 23 23 24 23 23 23 21 21 21 21 20 17 16 17 14 15 13 14 20 20 16 17 15 14 12 17 19 16
15 15 16 17 18 21 20 21 20 19 19 19 20 23 23 24 23 21 21 22 21 19 16 18 16 17 16 15 19 23 21 18 14 13 12 9 13 11
15 15 16 16 18 19 19 20 19 17 17 19 22 21 19 18 18 18 19 19 19 19 13 14 13 13 12 14 15 19 21 20 16 13 13 12 9 9
14 15 17 21 22 17 17 18 18 18 20 21 18 16 15 16 18 16 15 16 16 17 15 9 9 9 8 10 13 14 16 22 21 18 17 15 14 13
14 15 15 21 21 18 18 14 18 21 18 18 16 14 13 13 14 14 15 16 14 15 14 10 10 10 10 9 5 7 11 14 23 24 20 18 16 16
14 14 17 20 19 17 15 18 18 16 15 15 14 14 14 14 14 13 15 16 16 15 13 9 14 11 9 7 7 6 7 10 13 21 24 26 22 20
14 17 18 18 17 15 16 15 15 13 12 12 13 14 15 15 14 17 13 9 10 11 10 12 12 11 9 9 3 5 6 8 8 14 17 18 18 25
14 18 16 16 16 16 12 12 12 14 13 12 13 14 14 14 14 15 14 12 7 7 5 11 11 11 11 10 8 5 6 5 8 12 14 15 16 18
18 15 12 12 11 10 10 10 10 13 12 11 12 13 13 13 13 14 13 12 12 9 7 1 5 8 10 10 8 8 8 5 6 8 12 14 17 17
16 11 12 11 11 10 10 10 10 12 14 12 11 12 13 13 14 12 12 12 12 12 10 4 2 6 7 7 8 4 7 8 8 8 9 11 12 15
13 12 12 11 11 10 9 9 10 12 14 13 12 11 12 12 12 12 11 10 11 10 10 10 6 5 11 11 8 7 2 5 8 9 9 14 10 9
15 11 12 12 11 10 9 10 10 12 12 13 12 12 11 11 11 11 11 11 10 10 8 7 7 7 8 6 5 3 7 4 3 5 6 11 13 15
14 13 13 12 11 10 10 11 12 11 11 12 12 12 11 10 10 10 10 10 10 9 7 7 8 4 2 1 1 1 4 5 5 7 5 4 5 6
16 14 13 12 11 11 10 10 10 9 10 10 11 11 10 9 10 9 9 9 9 9 8 8 6 3 2 3 0 3 2 3 5 5 5 8 8 6
18 17 15 14 12 11 11 10 10 9 10 10 10 9 10 9 8 8 8 8 9 8 8 7 6 2 1 1 1 0 3 3 3 1 4 5 7 8

GFSNE_850_spd_039.txt.gz
Wind_Speed
18 15 16 14 14 16 15 19 26 30 33 32 33 30 30 29 29 29 30 30 32 33 37 38 37 33 34 33 30 28 26 23 24 27 20 32 37 31
13 13 14 16 15 18 21 24 26 31 37 34 34 32 31 29 29 31 30 32 32 32 33 30 29 29 29 31 29 28 27 24 23 25 27 28 26 32
13 13 15 16 18 21 24 26 28 30 34 37 36 34 31 29 28 28 29 29 31 30 29 32 29 29 29 29 29 26 26 25 23 23 27 27 15 29
12 13 17 19 21 22 24 25 28 29 32 35 35 32 28 27 29 30 29 26 27 27 27 28 26 25 28 30 31 26 24 25 22 21 18 27 28 13
15 16 19 19 20 21 22 24 25 26 27 28 31 30 29 27 27 27 27 26 24 25 25 26 31 32 25 25 27 25 22 23 21 20 18 19 27 23
16 17 17 17 18 19 23 20 21 23 24 25 27 27 25 26 26 27 27 23 25 22 23 23 22 18 21 19 17 20 22 21 20 19 17 16 20 26
16 15 16 19 26 23 20 21 20 21 21 23 26 28 27 27 25 28 28 27 23 21 22 22 21 18 18 18 13 15 18 20 19 15 17 17 16 23
15 15 16 17 16 21 20 26 23 21 25 27 26 27 27 25 25 24 25 25 26 20 19 20 19 19 15 13 16 12 18 20 17 13 14 15 17 16
14 15 16 15 18 18 19 22 22 22 23 25 26 25 25 25 26 26 26 25 24 24 21 23 19 19 15 14 16 14 18 21 16 12 12 8 10 12
14 15 15 15 17 24 26 20 19 19 19 19 21 24 26 27 25 23 25 25 25 22 20 24 21 20 19 20 20 23 21 20 17 13 9 7 4 7
13 14 15 16 18 23 23 19 19 19 17 21 23 25 22 19 17 22 23 21 23 21 19 21 22 18 17 17 17 18 18 17 17 14 10 5 5 6
12 13 16 22 25 24 22 18 19 18 22 22 19 19 17 17 18 18 20 22 21 20 13 14 13 11 11 12 14 13 16 15 16 14 10 7 6 5
13 12 11 22 22 20 19 17 17 24 19 17 19 16 15 15 15 16 17 19 21 20 16 14 13 11 11 15 10 7 11 11 13 16 15 11 8 8
13 12 15 19 19 17 16 16 18 16 16 16 16 15 16 17 18 17 21 19 18 21 17 14 13 11 13 13 10 8 6 9 8 10 13 15 11 12
12 13 17 18 16 15 14 16 16 14 15 14 15 15 16 17 17 18 19 17 17 12 14 13 12 9 11 11 14 4 4 6 7 13 12 13 15 17
12 14 20 14 16 16 15 12 13 13 14 14 15 15 16 16 15 16 17 18 18 21 6 9 11 11 11 10 10 9 5 4 5 5 12 14 13 12
19 19 11 12 12 11 11 11 12 12 12 13 13 14 15 15 15 15 15 15 16 16 15 6 7 8 11 12 12 8 7 5 5 5 8 10 13 13
17 12 11 13 12 11 11 11 11 12 13 12 13 13 13 14 15 15 13 13 14 14 15 13 18 7 8 9 9 8 6 5 5 4 4 7 8 13
18 12 13 13 12 11 11 11 11 12 14 12 12 12 13 13 13 13 14 13 13 12 13 14 14 11 13 11 6 5 4 5 3 4 6 7 3 10
17 15 14 13 13 11 11 11 11 10 10 11 10 12 12 13 12 12 12 14 13 13 11 11 11 12 9 9 5 1 4 1 1 1 6 5 9 7
19 18 16 15 14 13 13 14 13 10 11 10 9 10 11 10 11 11 10 11 12 11 11 12 12 10 6 4 4 2 2 4 4 4 4 4 4 5
22 21 19 17 17 16 15 14 12 11 10 10 10 9 9 9 10 11 11 10 10 11 11 12 10 6 5 3 7 5 3 1 3 5 5 6 5 5
22 21 21 21 19 18 15 14 13 11 11 10 9 8 9 7 9 9 10 10 9 10 10 10 9 7 5 4 3 4 3 3 0 1 3 5 8 7

GFSNE_850_spd_045.txt.gz
Wind_Speed
23 24 21 15 14 16 15 18 18 24 30 27 24 18 18 21 27 31 36 39 43 40 38 36 33 29 28 28 28 28 28 27 27 27 27 28 28 30
20 19 17 14 13 12 13 12 13 16 26 29 32 32 31 33 35 37 39 37 32 30 28 26 26 25 28 28 29 29 28 28 28 27 28 28 29 29
15 14 10 11 14 16 18 21 24 24 29 36 37 37 36 35 36 36 31 27 27 27 26 25 26 25 26 29 31 28 24 24 26 28 28 29 28 29
9 10 13 16 19 23 26 29 27 27 31 36 34 35 35 33 28 26 26 26 26 23 24 27 24 25 25 26 25 24 27 25 26 26 29 28 28 30
12 14 17 19 22 24 23 25 28 28 24 26 33 33 28 24 25 25 25 25 24 26 25 24 25 24 25 27 26 25 25 27 27 27 27 26 27 28
17 21 18 19 20 22 26 25 25 27 26 30 34 31 26 24 26 28 27 27 31 30 27 23 21 22 21 21 22 26 24 22 22 22 20 20 25 26
23 21 16 19 22 25 21 24 26 27 30 32 31 27 26 27 24 24 34 36 36 30 27 25 26 23 23 22 21 21 24 22 22 20 17 17 21 22
22 21 16 20 21 21 22 23 25 28 31 25 23 25 28 26 27 31 33 30 32 24 28 27 21 22 22 21 19 21 19 13 14 12 13 16 18 17
21 20 18 21 23 23 24 25 24 25 22 19 20 24 25 26 30 30 24 25 29 28 28 30 27 26 21 20 18 19 19 19 17 15 16 18 19 17
21 23 20 23 23 24 25 24 25 23 20 15 18 25 28 25 20 21 24 26 24 26 23 29 27 23 23 18 16 14 17 20 20 19 19 20 19 17
20 20 19 19 22 24 24 26 25 21 17 16 15 14 13 13 14 18 20 23 28 27 25 23 27 26 21 16 10 14 16 17 15 14 16 19 17 14
24 22 20 20 21 21 23 25 23 19 17 16 17 15 12 14 14 16 18 20 22 29 26 29 32 20 17 15 14 15 17 8 14 13 16 17 14 12
22 18 18 21 21 20 23 20 16 16 16 17 21 18 17 16 15 15 14 16 21 25 25 27 29 19 13 19 21 18 17 11 10 11 11 12 12 10
20 19 18 17 17 17 16 13 12 14 18 18 22 21 21 18 17 17 16 15 15 19 24 18 12 12 14 18 18 18 16 6 7 7 6 10 10 3
22 19 19 16 13 17 13 12 12 15 18 18 21 22 21 17 19 17 14 13 12 12 16 12 10 14 15 14 17 16 19 13 5 5 5 7 10 7
21 22 19 19 20 19 14 15 14 15 17 18 21 24 19 18 18 13 15 17 18 14 11 14 15 17 10 9 10 11 12 13 6 4 8 5 4 4
23 20 20 25 26 19 15 16 16 15 17 19 21 22 18 18 16 12 14 15 17 17 15 14 14 17 6 8 7 6 9 10 4 3 6 6 5 5
26 28 29 27 25 19 15 18 16 14 18 20 22 18 17 16 15 14 14 14 16 14 13 16 17 14 12 4 6 5 11 4 6 3 5 8 7 4
27 27 26 23 20 16 16 17 16 15 19 21 23 17 15 13 13 13 16 14 12 13 12 13 14 15 15 15 8 9 8 10 7 4 8 7 8 9
27 27 26 20 17 16 16 17 16 19 20 22 21 14 11 14 12 11 13 15 14 15 13 10 9 8 10 10 10 8 4 5 4 2 3 5 4 9
27 27 25 22 19 19 16 18 19 19 19 22 15 12 12 15 12 9 10 12 14 15 15 10 9 7 6 3 6 1 3 2 2 3 4 4 7 9
24 23 23 22 21 19 18 20 22 21 21 22 15 14 15 14 10 8 7 11 14 14 14 8 8 8 7 8 8 7 7 6 3 0 2 0 7 7
25 24 22 21 21 20 20 21 23 23 22 23 17 14 15 11 10 8 7 9 12 13 12 8 5 8 11 6 4 5 4 5 4 3 4 3 5 6

GFSNE_850_spd_048.txt.gz
Wind_Speed
28 22 18 16 14 16 14 14 16 19 29 24 19 29 30 32 33 33 36 39 39 40 36 31 25 23 24 24 24 25 26 27 28 29 29 30 30 30
18 18 17 11 11 13 14 14 18 20 28 31 34 36 36 35 34 33 33 33 31 27 24 24 23 22 22 23 24 25 26 28 27 28 30 31 31 31
16 12 11 13 16 20 21 22 23 26 28 34 35 35 32 33 32 28 25 24 23 23 23 22 24 24 23 23 24 24 23 23 25 28 28 30 32 30
18 17 16 17 20 23 24 26 24 24 28 32 32 31 33 32 25 23 22 21 22 23 23 25 25 24 24 24 26 27 28 26 25 27 31 31 31 32
21 20 18 22 26 23 22 23 25 26 25 29 33 33 33 27 24 22 21 21 22 26 29 29 25 24 21 21 22 22 22 25 28 30 33 35 32 33
23 22 24 24 24 22 22 25 24 25 27 30 33 34 29 26 22 24 26 29 33 26 18 17 17 19 22 24 24 24 23 24 26 27 26 26 28 26
25 26 23 23 23 23 24 22 23 26 29 30 33 30 28 27 25 26 30 33 25 21 22 22 20 17 18 19 22 23 23 22 21 23 25 25 22 23
23 23 23 23 24 23 23 23 23 26 29 31 29 27 27 27 29 30 30 26 30 25 27 23 22 21 18 17 18 20 22 21 20 19 20 18 18 19
24 25 23 24 22 22 23 22 23 25 26 27 26 23 27 28 26 22 23 24 25 26 27 29 23 23 19 19 17 17 19 22 22 20 19 16 18 21
27 26 20 21 23 23 22 23 24 24 24 21 19 20 20 20 19 20 23 23 27 26 21 29 25 28 22 17 12 7 8 14 19 23 23 22 21 22
24 21 20 23 21 20 22 24 24 23 20 17 14 16 16 15 16 18 21 24 29 27 20 23 28 30 23 14 6 8 15 18 20 20 21 19 19 22
20 20 19 19 18 20 22 23 24 19 16 15 12 14 14 17 15 14 16 20 21 26 21 29 33 26 21 18 13 18 17 18 18 17 18 18 18 20
20 20 18 19 19 19 20 20 21 18 15 16 16 17 18 21 17 15 15 16 19 22 21 21 30 21 16 20 22 18 17 20 19 16 14 14 16 16
24 22 19 21 19 17 14 18 17 17 16 16 19 19 21 24 20 19 16 14 14 18 19 18 19 15 18 21 23 18 17 19 8 7 10 10 12 13
22 19 20 21 19 15 16 18 17 17 16 17 19 20 22 23 19 17 12 13 14 12 12 13 14 17 17 17 19 17 17 18 10 8 7 6 7 10
25 22 21 22 23 21 20 20 18 16 17 17 19 21 24 22 17 14 17 17 17 14 6 8 12 15 15 10 11 14 11 15 17 8 7 3 3 6
23 24 25 24 24 26 24 21 20 15 17 18 18 20 23 21 17 13 15 15 14 16 14 9 9 11 11 6 10 7 16 11 4 4 3 3 1 3
23 26 26 24 24 26 24 23 19 16 17 18 17 20 23 20 16 13 13 14 14 14 15 15 15 12 9 4 9 9 13 7 2 6 4 2 2 2
26 27 26 24 24 22 21 19 18 14 15 17 17 19 21 15 13 13 13 13 14 14 14 11 12 13 11 11 8 11 11 11 6 6 6 2 1 1
28 30 30 25 23 21 19 17 17 16 17 15 16 19 18 14 12 13 12 13 14 15 15 9 9 10 10 11 13 8 7 8 5 4 7 5 5 4
30 28 28 27 21 19 19 18 18 19 18 18 17 19 16 13 11 12 10 10 12 14 15 10 11 8 6 4 5 2 4 4 6 6 4 3 4 7
27 30 25 23 21 18 18 19 18 18 18 20 18 19 18 13 11 11 10 10 11 12 13 9 7 5 4 8 5 3 3 4 4 3 3 5 4 2
24 25 23 23 22 20 18 19 19 19 18 18 18 18 16 11 11 12 10 9 11 10 10 7 4 5 7 6 3 4 2 2 5 5 4 6 8 5

GFSNE_850_spd_051.txt.gz
Wind_Speed
22 21 19 17 16 16 15 15 17 21 27 20 23 25 31 31 31 31 31 31 32 33 33 32 27 25 26 26 26 25 26 27 28 29 30 31 31 29
23 21 17 14 14 15 17 19 21 21 28 31 31 30 31 29 30 30 30 30 28 26 25 26 26 23 24 24 26 25 25 26 27 28 30 32 30 31
23 23 18 16 16 17 20 23 24 24 26 31 32 30 31 31 31 29 27 26 25 24 24 25 26 26 26 27 28 27 27 26 26 27 27 28 30 29
24 22 20 20 20 19 24 25 23 21 25 32 31 31 31 31 30 28 25 24 23 23 25 28 29 29 28 27 25 26 27 28 29 29 30 29 29 32
23 21 21 21 23 24 23 23 23 24 25 27 32 32 32 31 30 28 25 24 24 28 22 17 16 20 23 25 25 26 27 28 27 26 28 31 32 34
22 21 23 25 26 21 23 22 23 23 24 25 29 32 32 30 29 28 31 31 30 22 16 15 17 17 17 19 23 27 27 27 28 29 28 29 30 29
20 20 23 26 23 21 22 22 22 23 23 25 28 31 31 29 28 29 31 29 25 20 20 21 20 19 18 19 20 21 24 26 28 30 28 27 24 26
22 23 23 24 23 21 23 22 22 22 23 26 28 29 28 27 28 27 26 27 30 26 29 31 24 22 17 20 20 19 21 22 26 28 28 27 22 24
26 24 24 25 25 19 21 23 23 22 23 26 28 25 25 23 25 27 25 24 28 29 31 36 24 24 21 25 20 19 19 20 20 22 26 26 23 21
25 24 24 25 20 21 23 23 22 22 23 24 22 21 20 22 21 23 26 29 31 30 23 31 23 26 29 24 15 14 10 13 17 19 23 26 27 25
23 24 23 22 20 21 21 21 22 22 22 19 17 17 17 17 19 23 25 26 31 31 23 17 27 30 27 16 11 12 14 22 20 25 26 24 24 24
23 23 22 22 19 19 20 21 23 20 19 16 15 14 15 17 19 19 21 24 27 29 12 26 27 26 27 22 23 20 18 17 21 23 22 21 20 21
25 24 23 22 22 20 19 21 19 18 17 17 16 15 15 17 20 19 19 20 22 24 23 20 27 25 20 25 30 26 18 21 21 19 15 17 17 20
26 24 22 20 25 22 20 18 15 18 18 18 17 16 16 18 21 22 21 17 17 21 22 16 21 21 24 29 29 24 19 17 16 14 9 10 13 16
26 25 25 23 23 23 21 19 17 18 18 19 18 16 16 19 22 23 20 18 18 16 15 14 16 19 22 24 22 23 23 20 11 18 8 10 9 9
28 28 25 26 26 25 24 24 22 20 20 20 18 17 17 18 23 22 22 20 21 17 9 10 13 17 22 18 14 18 14 19 14 8 10 4 6 7
26 27 30 24 28 28 26 24 24 24 21 20 18 16 16 19 22 19 19 18 18 20 19 13 11 12 14 9 10 12 15 16 8 10 8 6 5 8
23 27 28 27 27 27 26 23 22 22 21 18 17 15 16 18 20 17 17 16 17 18 18 17 16 11 8 4 8 13 12 14 9 13 8 5 6 9
25 28 28 30 27 26 23 22 21 19 16 17 15 13 15 17 17 16 15 15 15 15 15 14 13 14 12 12 8 14 13 15 11 10 10 7 5 6
28 29 28 29 28 27 24 21 19 17 18 18 15 13 14 16 15 15 14 14 15 15 14 10 10 11 11 12 13 9 11 11 13 9 11 10 6 6
31 31 28 27 29 25 22 19 18 18 18 18 17 15 14 15 15 15 13 12 13 13 13 12 9 9 7 8 8 6 8 10 10 11 11 8 6 2
21 25 25 24 25 25 20 18 18 19 20 19 17 16 16 15 14 14 11 12 11 11 12 11 8 8 8 6 7 5 7 7 9 9 10 9 4 5
18 20 22 23 23 22 21 20 19 18 19 18 16 14 17 16 13 13 10 10 10 9 11 9 7 6 7 8 5 5 8 5 7 7 6 10 8 5

GFSNE_850_spd_054.txt.gz
Wind_Speed
16 17 18 17 14 12 11 11 14 21 25 21 18 19 21 26 28 28 29 30 29 29 29 28 28 25 25 25 25 26 27 27 28 28 29 29 30 29
16 16 17 16 13 12 13 14 17 21 27 26 25 24 27 26 27 28 28 27 27 25 24 24 25 24 24 25 26 27 28 27 27 27 27 26 27 29
16 15 18 16 16 16 17 18 21 23 25 29 28 28 27 27 28 28 26 26 25 24 23 24 26 27 28 28 28 28 28 28 28 29 28 27 28 29
15 18 18 17 17 17 20 23 22 22 23 28 30 29 29 28 28 29 25 24 24 23 25 25 23 22 21 22 24 29 30 28 27 28 28 28 27 28
18 18 18 18 20 21 24 23 21 21 23 27 29 30 30 29 30 28 27 26 25 23 19 15 15 17 19 21 21 21 24 29 30 29 30 30 29 28
18 19 19 19 20 23 25 22 21 22 22 24 27 29 29 29 28 29 29 27 26 22 16 15 17 18 19 20 21 22 23 24 27 30 31 31 31 30
18 19 20 22 21 24 25 23 22 24 22 24 26 28 29 29 27 27 28 29 28 16 22 23 22 18 17 18 18 21 24 24 24 27 29 31 31 31
19 20 22 24 23 24 24 27 21 23 23 24 25 28 29 27 25 25 26 26 23 26 31 32 26 20 17 18 21 24 25 25 26 26 25 26 28 29
20 21 24 24 22 25 26 22 23 24 24 23 26 26 27 22 23 24 24 25 26 30 29 32 24 20 20 21 22 22 21 20 20 19 20 22 23 26
21 22 25 24 24 25 22 22 24 23 22 24 26 25 22 20 20 22 26 28 29 28 25 30 20 22 22 20 14 14 17 16 17 21 26 26 28 29
23 24 25 26 24 23 23 22 22 22 21 23 24 21 19 18 18 22 24 26 30 31 23 15 25 27 25 18 12 19 19 18 24 28 28 28 31 29
27 27 27 26 24 23 25 24 24 22 21 21 20 18 17 18 18 18 22 23 25 28 17 24 26 23 26 24 27 26 27 19 19 23 28 29 28 26
29 29 28 23 24 24 26 26 25 20 20 19 18 18 17 17 17 17 18 20 22 23 22 21 27 25 19 28 32 29 28 24 20 23 19 18 17 17
31 30 28 22 22 25 24 26 24 21 20 19 20 20 18 16 16 17 19 18 18 22 23 18 24 23 24 28 33 32 27 19 19 17 21 13 13 15
30 30 27 24 25 26 27 27 24 24 23 22 22 21 18 17 17 18 18 18 18 17 16 16 17 19 20 25 30 27 26 23 17 17 14 13 13 14
31 29 27 26 27 29 28 27 28 25 26 25 24 22 19 18 17 18 20 18 19 17 11 12 15 18 23 22 20 15 18 22 14 13 13 9 11 14
34 27 25 27 29 30 29 26 29 25 26 27 26 23 20 18 16 17 18 17 18 20 20 16 13 13 16 17 14 14 18 16 11 13 12 8 10 15
35 28 25 26 27 27 28 26 24 26 25 25 26 24 20 17 15 16 15 16 17 16 17 18 17 14 6 6 7 13 16 18 11 12 12 12 10 12
31 29 26 26 27 27 25 28 25 23 22 21 23 20 17 15 14 14 13 14 14 14 13 14 13 15 13 13 8 11 14 14 14 13 15 12 10 12
27 23 23 26 27 27 24 29 25 22 21 21 20 19 17 15 13 13 12 13 13 13 12 11 9 10 12 14 14 9 10 13 13 12 12 11 8 8
15 18 24 27 28 23 23 22 23 20 20 20 20 20 18 16 13 12 11 12 12 12 12 11 8 7 10 8 9 7 8 10 12 14 14 9 8 8
14 18 20 19 21 24 21 22 21 18 19 20 20 19 19 18 14 12 11 10 9 10 11 10 9 7 7 7 7 7 7 6 10 10 12 11 8 5
12 16 17 16 18 19 20 21 19 19 20 19 20 20 18 18 14 13 11 10 8 8 9 8 7 7 5 6 7 6 8 5 4 7 8 10 10 9

GFSNE_850_spd_057.txt.gz
Wind_Speed
15 13 14 14 15 14 15 13 13 18 20 17 16 14 17 19 25 27 29 30 30 29 29 30 29 29 29 25 25 26 27 27 28 27 27 29 31 30
14 14 14 15 15 13 15 16 15 17 24 20 19 17 18 21 24 27 28 29 29 28 28 28 27 26 27 26 26 26 27 28 28 28 28 29 28 26
14 15 16 16 15 14 16 18 18 17 23 24 20 18 23 22 22 25 27 27 27 27 27 27 28 28 28 28 26 25 26 28 28 27 28 28 28 27
15 16 16 16 17 17 19 19 20 19 21 24 21 20 19 21 25 27 26 26 26 26 24 24 24 21 21 20 21 22 23 23 24 27 27 27 28 27
15 16 18 19 19 19 19 21 19 23 23 21 23 21 20 19 20 22 23 24 22 24 23 22 18 20 20 22 23 23 22 23 23 23 26 29 28 28
16 19 20 21 21 20 21 22 23 24 20 21 22 21 20 18 21 21 20 19 21 22 18 18 18 22 21 23 23 22 22 22 24 24 24 25 27 29
21 21 22 22 21 22 23 22 24 22 21 22 22 21 20 19 20 20 20 21 20 17 16 17 21 20 18 17 17 19 22 25 26 26 26 25 25 26
24 24 23 22 23 24 25 26 27 24 24 22 22 22 21 20 20 18 18 19 22 16 22 24 20 20 17 15 14 18 23 23 24 23 22 23 23 23
27 26 25 25 23 25 26 27 27 28 25 23 24 22 21 19 19 18 17 19 21 23 23 25 20 18 16 17 15 15 14 16 18 18 17 19 20 22
28 27 26 27 26 25 26 28 27 25 24 24 25 23 21 24 21 17 18 20 21 20 18 24 16 19 20 17 9 7 14 17 19 20 24 26 28 29
28 27 28 29 29 25 27 29 27 26 23 22 23 24 24 22 20 16 17 19 22 21 18 13 18 24 22 17 10 10 17 21 20 21 25 27 28 30
33 33 32 30 32 28 28 29 29 27 24 22 22 23 21 20 19 18 17 18 19 19 9 17 19 19 18 12 13 17 22 23 22 19 20 23 25 27
35 35 34 31 30 30 27 29 29 24 27 24 22 19 18 17 15 15 16 16 18 19 19 18 18 19 16 25 19 21 20 24 20 21 20 20 23 21
35 36 35 33 29 30 28 29 26 25 25 26 23 20 18 16 15 16 17 20 19 21 19 18 19 18 19 21 24 21 23 21 20 20 19 18 19 19
33 35 32 33 31 31 31 28 26 25 30 28 26 22 19 16 17 19 20 21 22 18 17 16 18 18 18 21 22 21 23 21 17 18 19 19 18 17
34 37 32 34 36 32 30 29 28 31 28 33 26 21 20 21 20 19 21 19 17 16 14 14 15 18 18 18 18 20 16 19 20 15 18 17 14 16
33 33 34 35 34 32 28 28 29 26 27 28 30 25 24 23 22 20 20 18 15 14 14 13 14 14 16 15 15 12 13 15 15 15 18 16 12 15
30 31 30 30 32 28 25 24 25 24 24 23 29 26 25 24 20 18 19 17 14 13 12 12 14 13 9 6 7 8 10 12 13 14 15 14 10 14
25 27 29 28 28 26 24 21 21 22 22 22 23 25 23 23 20 19 16 14 13 12 11 10 11 9 9 9 7 7 11 11 13 12 13 12 10 13
22 23 22 24 22 17 20 22 23 22 20 23 23 23 21 19 19 19 15 13 11 10 10 8 8 8 8 9 11 8 7 10 12 13 14 9 9 10
17 11 10 12 13 16 18 19 18 20 19 19 22 22 20 20 20 17 15 14 13 10 9 8 8 7 7 8 8 10 9 7 9 12 15 10 9 8
25 21 14 11 11 14 16 16 16 17 18 19 21 21 19 20 21 19 17 13 11 9 9 8 7 6 5 5 7 7 7 5 5 8 11 11 10 7
25 22 21 16 11 13 11 14 15 17 19 18 21 19 20 20 20 20 18 15 12 10 8 6 6 5 5 5 5 6 6 4 3 3 6 7 6 6

GFSNE_850_spd_060.txt.gz
Wind_Speed
13 15 13 11 12 11 11 12 14 18 19 17 18 18 19 19 20 22 23 24 29 30 29 29 29 29 29 29 26 26 26 27 27 28 28 29 29 29
15 13 13 12 13 12 12 13 15 18 24 18 19 20 19 21 21 23 22 27 27 30 29 27 28 30 31 31 30 29 28 27 27 27 28 28 28 29
14 15 15 14 14 14 14 15 17 18 22 24 21 21 21 21 22 21 22 23 22 25 30 28 29 31 30 29 29 27 24 23 23 24 25 27 28 28
16 15 17 16 17 16 17 18 19 19 21 25 25 23 22 22 23 23 22 21 22 23 27 27 30 30 26 26 25 24 24 23 23 23 23 23 25 27
16 18 18 18 19 19 20 20 20 21 22 25 28 24 23 22 22 23 22 22 20 23 26 27 27 26 25 27 26 27 27 24 23 24 24 24 24 25
18 19 20 21 22 22 22 22 22 23 24 26 26 26 24 22 21 23 22 21 21 20 22 22 24 25 28 28 26 25 23 22 24 25 26 26 27 25
20 21 23 24 26 27 25 23 22 24 25 25 26 25 24 23 22 22 23 21 20 18 18 18 21 22 22 22 22 20 20 21 25 28 30 29 27 25
23 24 25 28 31 30 30 30 28 26 26 25 26 26 24 23 21 22 22 21 21 16 16 23 20 22 21 19 20 24 22 22 18 18 21 23 22 21
26 27 28 28 30 29 28 29 30 30 33 30 29 27 25 23 22 22 21 20 21 20 20 23 20 22 19 19 22 25 20 14 17 20 22 23 22 22
26 27 29 30 29 30 27 27 27 27 28 29 24 24 23 21 21 20 20 20 20 18 18 25 21 20 20 22 23 20 17 17 19 21 22 23 26 27
28 29 30 31 31 32 35 33 31 29 29 30 29 28 28 29 28 22 19 19 20 19 17 20 16 22 21 21 13 12 18 21 20 20 21 21 21 23
29 30 32 35 36 35 38 39 36 33 26 24 22 22 24 22 22 21 18 19 19 20 13 17 21 20 23 15 12 19 14 19 22 22 19 20 19 19
30 33 34 33 35 37 34 39 40 33 26 25 23 21 18 18 18 18 16 17 19 21 17 18 19 20 19 25 20 17 17 18 20 19 20 19 20 19
32 34 34 35 34 34 35 35 36 36 30 29 27 22 21 19 18 18 18 18 19 21 19 18 20 19 20 23 24 19 18 19 17 20 20 19 20 20
33 35 37 34 36 36 32 34 34 37 32 30 28 26 24 20 17 17 18 19 20 19 19 17 17 18 18 22 23 20 19 19 15 19 19 21 21 18
32 32 33 33 37 36 29 27 31 33 33 32 27 26 23 20 18 18 17 17 16 16 16 16 16 16 18 19 19 20 17 17 18 19 20 19 17 15
34 30 28 28 28 27 25 24 25 29 25 26 25 28 24 23 20 17 16 16 16 15 15 13 13 16 17 19 19 16 15 15 17 17 18 19 16 13
27 23 27 28 28 24 25 23 24 23 20 21 23 25 23 25 21 18 15 17 15 14 14 13 13 14 13 14 12 12 12 14 16 15 15 17 15 14
19 19 21 22 25 24 20 18 23 16 18 20 20 25 22 22 22 18 16 16 14 13 13 12 11 11 12 12 9 10 11 11 13 14 14 14 13 12
19 21 24 24 20 16 10 11 10 13 17 20 20 23 22 20 20 17 16 15 13 12 12 11 10 11 11 11 11 9 9 11 11 13 15 14 10 11
20 21 22 22 22 17 10 11 13 14 15 17 18 18 20 21 18 16 15 14 13 11 11 10 9 15 12 9 11 12 8 11 10 12 14 13 10 8
20 20 21 21 20 20 17 11 9 12 12 14 16 17 20 19 17 17 17 15 12 11 10 10 9 8 8 8 10 11 9 10 10 10 12 12 10 7
20 21 22 22 21 20 19 14 11 9 13 15 15 17 20 19 17 17 16 17 13 11 10 9 8 7 8 8 9 8 9 8 7 7 8 11 8 8

GFSNE_850_spd_063.txt.gz
Wind_Speed
23 20 18 17 13 15 14 15 17 20 20 17 18 17 19 19 20 22 22 24 29 34 31 30 28 27 29 29 29 29 27 26 26 27 27 28 29 30
20 18 19 14 15 16 15 16 16 19 24 19 19 19 20 22 23 27 25 28 29 30 33 33 32 31 30 29 29 29 27 26 25 25 25 25 26 28
19 19 15 16 17 17 17 17 18 18 23 25 21 22 23 23 24 25 23 24 27 28 29 33 35 33 31 29 28 27 27 24 22 22 22 23 23 24
19 14 18 17 20 19 20 21 21 21 23 27 27 26 26 25 26 26 25 26 26 27 29 33 32 31 27 26 25 26 26 25 24 23 23 22 22 22
13 17 21 21 22 21 22 24 24 24 25 26 30 28 29 27 27 26 26 26 26 26 26 27 28 29 28 27 27 27 25 22 21 21 21 23 23 23
18 21 22 22 23 23 25 27 28 29 28 28 30 31 30 28 25 26 27 26 24 24 25 25 24 24 24 26 26 26 26 21 20 19 21 24 27 29
18 21 22 24 26 29 31 33 30 30 29 29 30 29 29 27 27 27 27 25 24 22 24 22 21 21 22 21 22 22 18 23 27 26 25 23 23 23
19 21 24 26 30 33 34 34 35 36 36 31 32 31 30 28 29 28 25 23 26 21 22 23 22 22 21 20 21 26 28 28 29 27 21 22 23 25
20 23 26 28 31 31 33 36 37 38 37 38 40 36 33 31 29 25 22 23 25 23 22 27 22 23 21 20 22 27 31 30 27 21 20 22 25 26
23 25 28 31 32 33 36 38 38 36 34 36 34 31 27 25 24 22 20 20 23 24 21 27 23 24 20 22 22 24 26 20 19 21 23 24 25 25
23 25 27 31 34 36 38 40 41 43 40 37 33 36 35 35 33 30 28 24 27 24 20 22 22 20 21 24 20 19 20 25 19 20 24 26 24 23
28 28 30 32 33 35 36 39 42 44 41 38 34 33 30 32 31 34 32 27 25 25 19 19 17 19 25 20 10 22 22 19 19 20 23 19 20 21
32 35 34 31 33 36 40 42 42 41 39 37 36 30 27 21 19 22 21 19 20 23 18 18 17 19 20 26 22 21 21 19 20 21 17 18 19 21
33 35 36 37 39 40 40 41 40 42 39 39 38 32 27 24 23 22 22 22 22 23 20 19 21 20 22 24 24 22 21 20 19 20 18 20 18 20
31 34 37 38 37 36 35 35 36 35 33 34 35 40 33 27 23 25 23 23 24 24 21 21 23 21 20 24 25 22 21 21 18 14 19 19 18 17
31 34 33 30 28 29 32 33 30 28 28 28 31 36 29 23 24 26 24 24 23 23 19 17 19 20 22 20 21 24 21 19 18 18 19 18 18 13
30 28 26 26 28 29 30 30 28 27 26 26 29 30 23 19 23 24 25 24 21 17 16 15 16 16 17 19 23 19 18 16 16 18 17 16 17 15
22 22 25 25 25 25 27 28 29 25 24 21 19 18 19 20 21 22 23 24 20 17 16 14 13 14 16 18 17 19 14 15 17 17 13 16 17 11
17 20 23 25 26 25 29 28 21 21 18 18 15 17 19 19 21 22 24 22 20 16 15 13 13 13 14 16 13 11 12 14 14 14 14 15 18 12
16 19 22 24 25 25 26 27 22 14 9 12 15 17 19 21 22 23 22 21 19 15 13 13 12 13 14 14 14 15 14 13 10 13 15 16 11 13
18 19 20 22 23 24 24 23 23 16 11 16 16 17 18 21 22 23 21 19 17 15 13 12 11 15 18 19 13 13 13 12 11 13 14 14 12 10
19 19 20 21 23 23 23 23 21 19 13 13 13 15 17 17 21 22 20 18 17 15 13 11 10 10 8 10 12 14 10 12 16 13 12 12 14 9
20 21 22 22 22 23 22 22 22 20 17 12 11 9 15 17 21 22 19 18 17 13 11 10 9 9 9 9 11 11 11 11 10 10 14 10 12 13

GFSNE_850_spd_066.txt.gz
Wind_Speed
28 23 19 19 16 15 14 20 21 23 25 22 21 18 17 18 20 22 26 29 32 36 35 31 33 34 33 33 31 30 30 28 26 25 26 26 27 27
25 20 19 19 18 16 16 23 23 24 29 23 22 21 22 25 25 26 30 32 34 35 29 29 31 33 36 35 33 31 28 27 25 24 23 24 23 23
20 18 17 17 18 14 19 22 23 24 28 32 29 26 27 28 28 27 30 30 31 27 27 32 33 35 32 31 31 27 24 23 24 23 22 22 22 22
17 16 17 15 14 20 23 26 27 28 30 34 33 32 31 31 31 30 31 32 31 33 31 30 32 28 26 30 31 25 24 23 22 21 21 22 22 21
15 17 14 14 20 24 26 26 28 30 29 32 36 33 32 29 30 31 27 27 30 31 26 23 23 26 31 30 26 26 26 24 22 22 19 19 19 20
15 13 16 21 23 23 26 27 30 31 31 32 35 36 35 32 28 22 22 22 26 27 25 26 30 26 27 22 25 27 28 24 21 24 26 26 24 23
17 18 19 19 21 24 28 32 34 37 41 41 42 38 31 28 26 26 28 32 35 33 26 26 24 23 24 27 25 26 26 27 27 27 29 29 25 22
14 12 17 21 24 26 30 32 35 39 41 42 42 42 40 37 34 35 33 30 33 30 22 25 24 30 31 29 23 24 27 28 30 30 31 27 22 21
14 18 22 24 26 29 33 36 37 36 38 41 45 44 42 41 38 33 32 32 29 25 23 28 28 35 22 22 25 28 29 27 27 26 23 19 20 22
18 19 21 24 25 27 32 37 39 40 39 36 39 42 42 41 39 36 29 27 30 31 27 30 31 27 23 25 25 26 22 23 23 24 21 18 20 25
22 24 27 30 32 34 38 42 45 47 46 43 36 37 39 39 40 33 30 29 34 37 34 27 25 25 23 22 24 23 16 22 26 24 20 21 22 24
25 27 28 30 33 35 36 39 44 47 45 47 47 42 37 36 36 36 32 32 32 34 28 23 23 23 25 27 18 13 22 22 23 20 18 19 19 21
26 29 30 31 32 33 33 36 40 40 43 42 42 41 37 36 33 38 33 27 26 26 19 14 21 21 21 27 29 26 22 23 23 23 19 17 17 17
28 29 30 31 32 31 28 28 28 29 32 35 35 32 31 32 34 33 26 23 21 23 18 17 22 22 24 27 33 26 23 19 19 20 19 16 15 20
26 28 29 30 28 28 29 30 30 30 32 33 32 32 29 25 34 33 29 19 23 22 22 22 24 25 26 27 27 28 24 23 19 12 16 20 18 16
26 27 27 26 27 29 29 28 28 29 29 32 33 31 26 25 31 34 20 25 27 27 26 25 24 23 23 22 20 20 19 19 16 14 20 18 13 11
26 25 23 26 30 30 30 28 28 30 26 24 31 30 26 25 34 27 19 24 27 25 23 21 17 17 21 19 19 19 22 20 14 17 20 17 12 12
21 20 22 25 28 29 29 30 30 30 33 21 23 24 20 14 10 12 16 22 25 22 23 20 15 15 14 17 18 21 17 15 14 19 15 15 18 13
16 18 22 24 27 28 27 28 31 30 29 28 18 19 10 10 13 15 18 20 22 21 22 18 15 16 18 20 14 15 14 14 16 14 12 14 16 11
15 19 22 24 26 27 28 27 29 29 27 26 22 15 13 15 15 17 20 22 23 21 21 16 16 16 17 18 18 19 19 16 14 11 13 12 11 9
18 21 24 24 26 26 27 26 26 28 26 24 21 17 14 16 16 18 19 20 22 20 19 15 13 15 15 18 20 19 8 11 12 9 14 13 13 11
21 23 23 25 27 26 25 26 26 26 25 24 20 19 11 9 16 15 18 22 22 19 18 15 12 13 13 12 10 11 11 11 12 10 9 10 12 10
25 22 23 26 27 26 26 26 25 25 25 23 22 22 18 9 7 12 17 22 17 17 18 17 16 12 11 11 10 11 9 10 11 12 10 12 8 7

GFSNE_850_spd_069.txt.gz
Wind_Speed
27 26 26 24 22 22 22 23 23 28 31 28 27 23 24 23 21 22 26 26 27 27 28 31 36 33 31 30 31 29 27 28 26 25 24 24 24 25
23 24 25 24 23 25 21 23 24 26 34 32 29 24 23 25 27 26 26 27 28 30 33 36 35 33 30 28 26 27 28 28 24 22 22 22 22 25
22 22 21 19 20 20 22 21 21 25 31 33 32 30 30 31 27 31 34 34 34 35 36 34 32 30 29 26 26 26 26 24 23 21 21 20 21 23
19 17 16 17 20 20 17 18 22 27 32 37 36 35 34 29 32 34 35 38 36 33 31 27 29 29 25 25 27 27 23 23 24 24 23 22 19 19
14 16 16 18 19 16 20 23 27 30 32 35 40 39 36 33 34 34 32 35 33 22 26 27 26 26 26 27 28 22 24 26 24 23 23 23 24 22
13 15 17 16 17 20 23 26 26 30 32 37 40 42 39 38 37 33 35 38 33 30 27 30 30 32 30 28 24 25 26 26 24 23 24 23 25 25
15 16 14 16 16 17 22 26 29 33 37 40 43 44 46 46 43 39 33 28 28 31 36 35 34 26 26 24 25 27 28 24 24 27 26 27 26 27
14 9 9 13 17 20 24 28 29 29 29 29 32 35 41 42 41 43 39 38 34 35 33 34 28 27 28 29 30 29 19 24 29 31 27 25 24 22
9 12 15 19 23 26 29 31 33 35 36 37 39 40 39 37 38 40 41 39 40 38 29 31 29 31 30 29 27 18 21 26 26 23 21 24 20 19
14 17 20 23 25 30 34 37 38 40 42 43 44 46 43 40 35 36 37 38 41 33 29 30 29 32 28 26 18 19 23 24 23 19 21 22 19 18
17 20 21 23 24 27 31 35 38 38 37 37 38 39 40 41 42 35 34 35 38 33 29 28 31 29 23 20 18 20 24 23 17 19 21 19 19 19
17 18 19 22 24 25 28 31 36 35 35 36 34 34 33 33 32 30 34 35 37 33 29 25 20 18 20 22 20 15 15 23 27 22 20 20 18 19
18 20 21 23 24 25 25 25 27 32 34 33 34 34 34 32 27 26 27 32 31 36 30 23 19 16 20 22 23 24 24 27 20 19 16 16 16 16
21 22 23 23 24 24 25 26 27 28 30 32 33 32 34 32 30 25 28 26 29 31 21 18 20 19 20 23 26 26 25 21 17 16 14 13 13 16
22 22 22 22 22 24 25 27 27 26 26 28 33 30 31 33 31 28 25 29 30 24 18 20 20 19 21 24 25 22 19 15 9 5 13 12 14 14
21 21 20 21 22 24 26 27 27 26 26 28 30 32 30 28 31 26 24 31 32 17 18 17 18 19 21 22 22 20 15 15 15 12 12 14 15 11
22 20 20 22 25 26 27 27 28 28 28 28 27 33 24 23 31 28 22 31 20 16 18 19 18 18 18 18 20 18 14 15 14 13 16 18 17 12
18 18 19 21 24 27 29 30 30 29 29 29 27 26 28 20 28 14 15 23 14 17 18 17 17 17 16 18 16 15 14 14 13 13 15 17 16 6
16 17 20 22 25 27 28 30 31 29 29 28 27 24 27 19 20 15 8 10 15 14 17 16 15 16 17 19 15 12 15 14 16 20 14 11 12 6
17 18 20 22 26 27 27 29 30 29 29 28 27 24 22 23 15 15 14 14 14 14 16 18 18 18 18 18 17 14 14 17 13 10 11 8 7 7
20 21 21 24 25 25 28 29 29 28 28 28 26 24 23 22 17 10 14 15 15 16 19 20 16 11 13 15 14 16 15 7 9 7 9 10 8 7
21 22 25 26 24 27 29 29 29 28 28 27 26 24 23 21 21 15 7 12 17 17 20 18 12 12 13 12 12 11 6 9 10 8 7 8 10 11
24 26 27 26 27 27 25 26 28 28 25 25 25 25 23 22 20 19 12 9 11 17 21 14 14 14 12 10 9 7 8 8 8 9 7 8 9 2